CW6538 Cattolica IT current weather conditions

sailwx.info

Wind from 159 at 2 knots gusting 6

Air temperature 20.0° C
Dewpoint 14.8° C

Last reported at 2019-Sep-16 22:03 UTC.
Time now 2019-Sep-16 22:20 UTC

Location: N 43°58' E 012°44'.
View on Google Maps.

See reports from other nearby stations

  
Tides and Currents Weather Stations Pressure Air Temp Water Temp Dewpoint Dewpoint Depression Visibility Wind Speed Wind Dir Waves Ship Positions
date/time (UTC)wind fromknots sea level pressurealtimeterstation pressurevisibilityair tempwater tempwave heightnotes
2019-Sep-16 22:03 159 2 gusting 6 20.0
2019-Sep-16 21:58 139 2 gusting 6 20.6
2019-Sep-16 21:53 158 2 gusting 5 20.6
2019-Sep-16 21:48 160 2 gusting 5 20.6
2019-Sep-16 21:43 174 4 gusting 5 20.6
2019-Sep-16 21:38 193 3 gusting 5 20.6
2019-Sep-16 21:33 173 3 gusting 4 20.6
2019-Sep-16 21:28 167 2 gusting 5 21.1
2019-Sep-16 21:23 166 2 gusting 4 21.1
2019-Sep-16 21:18 155 1 gusting 4 21.1
2019-Sep-16 21:13 157 0 gusting 4 21.1
2019-Sep-16 21:08 163 0 gusting 4 21.1
2019-Sep-16 21:03 172 1 gusting 2 21.1
2019-Sep-16 20:58 172 1 gusting 2 21.1
2019-Sep-16 20:53 173 0 gusting 2 21.7
2019-Sep-16 20:48 173 1 gusting 3 21.7
2019-Sep-16 20:43 184 1 gusting 4 21.7
2019-Sep-16 20:38 186 1 gusting 3 21.7
2019-Sep-16 20:33 186 1 gusting 2 21.7
2019-Sep-16 20:28 186 21.7
2019-Sep-16 20:23 186 1 gusting 4 22.2
2019-Sep-16 20:18 186 2 gusting 4 22.2
2019-Sep-16 20:13 192 2 gusting 4 22.2
2019-Sep-16 20:08 192 3 gusting 5 22.2
2019-Sep-16 20:03 181 2 gusting 4 22.2
2019-Sep-16 19:58 189 2 gusting 4 22.2
2019-Sep-16 19:53 194 1 gusting 3 22.2
2019-Sep-16 19:48 180 1 gusting 2 22.2
2019-Sep-16 19:43 180 1 gusting 2 22.2
2019-Sep-16 19:38 180 1 gusting 3 22.8
2019-Sep-16 19:33 180 1 gusting 3 22.8
2019-Sep-16 19:28 180 1 gusting 2 22.8
2019-Sep-16 19:23 180 22.8
2019-Sep-16 19:18 180 22.8
2019-Sep-16 19:13 180 2 gusting 3 22.8
2019-Sep-16 19:08 173 2 gusting 3 22.8
2019-Sep-16 19:03 173 22.8
2019-Sep-16 18:58 171 4 gusting 4 22.8
2019-Sep-16 18:53 178 1 gusting 3 22.8
2019-Sep-16 18:48 169 1 gusting 5 22.8
2019-Sep-16 18:43 167 3 gusting 6 23.3
2019-Sep-16 18:38 138 4 gusting 6 23.3
2019-Sep-16 18:33 146 3 gusting 6 23.3
2019-Sep-16 18:28 137 3 gusting 7 23.3
2019-Sep-16 18:23 136 4 gusting 7 23.9
2019-Sep-16 18:18 166 0 gusting 3 23.9
2019-Sep-16 18:13 144 1 gusting 3 23.9
2019-Sep-16 18:08 130 0 gusting 2 24.4
2019-Sep-16 18:03 128 0 gusting 2 24.4
2019-Sep-16 17:58 057 1 gusting 2 24.4
2019-Sep-16 17:53 057 24.4
2019-Sep-16 17:48 057 0 gusting 4 24.4
2019-Sep-16 17:43 057 3 gusting 4 24.4
2019-Sep-16 17:38 063 2 gusting 3 24.4
2019-Sep-16 17:33 123 1 gusting 3 25.0
2019-Sep-16 17:28 123 1 gusting 3 25.0
2019-Sep-16 17:23 136 1 gusting 6 25.0
2019-Sep-16 17:18 142 3 gusting 6 25.0
2019-Sep-16 17:13 136 2 gusting 6 25.0
2019-Sep-16 17:08 155 2 gusting 6 25.0
2019-Sep-16 17:03 134 4 gusting 6 25.6
2019-Sep-16 16:58 119 4 gusting 6 25.6
2019-Sep-16 16:53 155 4 gusting 6 25.6
2019-Sep-16 16:48 129 3 gusting 6 26.1
2019-Sep-16 16:43 127 3 gusting 6 26.1
2019-Sep-16 16:38 123 1 gusting 5 26.1
2019-Sep-16 16:33 159 2 gusting 5 26.1
2019-Sep-16 16:28 108 2 gusting 6 26.1
2019-Sep-16 16:23 094 4 gusting 6 26.1
2019-Sep-16 16:18 110 2 gusting 6 26.7
2019-Sep-16 16:13 119 4 gusting 6 26.7
2019-Sep-16 16:08 096 1 gusting 3 26.7
2019-Sep-16 16:03 088 1 gusting 6 26.7
2019-Sep-16 15:58 105 2 gusting 6 26.7
2019-Sep-16 15:53 116 2 gusting 6 26.7
2019-Sep-16 15:48 128 2 gusting 5 27.2
2019-Sep-16 15:43 133 2 gusting 5 27.2
2019-Sep-16 15:38 115 1 gusting 6 26.7
2019-Sep-16 15:33 103 2 gusting 6 26.7
2019-Sep-16 15:28 103 4 gusting 6 26.7
2019-Sep-16 15:23 085 3 gusting 6 26.7
2019-Sep-16 15:18 050 4 gusting 6 26.7
2019-Sep-16 15:13 081 4 gusting 6 26.7
2019-Sep-16 15:08 078 2 gusting 6 26.7
2019-Sep-16 15:03 117 2 gusting 7 26.7
2019-Sep-16 14:58 084 2 gusting 7 26.7
2019-Sep-16 14:53 069 3 gusting 6 26.7
2019-Sep-16 14:48 062 3 gusting 6 26.1
2019-Sep-16 14:43 080 4 gusting 7 26.1
2019-Sep-16 14:38 098 4 gusting 7 26.1
2019-Sep-16 14:33 130 5 gusting 9 26.1
2019-Sep-16 14:28 117 3 gusting 9 26.7
2019-Sep-16 14:23 115 5 gusting 8 26.7
2019-Sep-16 14:18 100 3 gusting 7 26.7
2019-Sep-16 14:13 116 4 gusting 7 26.7
2019-Sep-16 14:08 070 1 gusting 9 26.1
2019-Sep-16 14:03 112 4 gusting 9 26.1
2019-Sep-16 13:58 078 5 gusting 8 26.1
2019-Sep-16 13:53 009 3 gusting 9 26.1
2019-Sep-16 13:48 043 5 gusting 12 26.1
2019-Sep-16 13:43 061 9 gusting 12 26.1
2019-Sep-16 13:38 063 5 gusting 12 26.1
2019-Sep-16 13:33 064 5 gusting 11 26.1
2019-Sep-16 13:28 109 7 gusting 13 26.1
2019-Sep-16 13:23 051 8 gusting 13 26.1
2019-Sep-16 13:18 104 6 gusting 13 26.7
2019-Sep-16 13:13 081 6 gusting 13 26.7
2019-Sep-16 13:08 360 7 gusting 12 26.7
2019-Sep-16 13:03 057 8 gusting 13 26.7
2019-Sep-16 12:58 061 6 gusting 14 26.7
2019-Sep-16 12:53 060 6 gusting 14 26.7
2019-Sep-16 12:48 034 10 gusting 14 26.1
2019-Sep-16 12:43 067 6 gusting 14 26.7
2019-Sep-16 12:38 061 6 gusting 12 26.7
2019-Sep-16 12:33 045 7 gusting 12 26.7
2019-Sep-16 12:28 042 6 gusting 13 26.7
2019-Sep-16 12:23 055 8 gusting 13 26.7
2019-Sep-16 12:18 013 6 gusting 13 26.7
2019-Sep-16 12:13 059 6 gusting 13 26.7
2019-Sep-16 12:08 060 6 gusting 13 26.7
2019-Sep-16 12:03 032 7 gusting 12 26.7
2019-Sep-16 11:58 069 7 gusting 12 26.7
2019-Sep-16 11:53 054 7 gusting 11 26.7
2019-Sep-16 11:48 035 5 gusting 11 26.7
2019-Sep-16 11:43 044 5 gusting 11 26.7
2019-Sep-16 11:38 068 4 gusting 11 26.7
2019-Sep-16 11:33 044 5 gusting 11 26.7
2019-Sep-16 11:28 040 5 gusting 10 26.7
2019-Sep-16 11:23 034 6 gusting 10 26.1
2019-Sep-16 11:18 038 7 gusting 10 26.7
2019-Sep-16 11:13 036 7 gusting 11 26.7
2019-Sep-16 11:08 042 7 gusting 11 26.7
2019-Sep-16 11:03 021 7 gusting 10 26.7
2019-Sep-16 10:58 063 6 gusting 10 26.7
2019-Sep-16 10:53 067 7 gusting 9 26.7
2019-Sep-16 10:48 067 6 gusting 9 26.7
2019-Sep-16 10:43 022 5 gusting 9 26.7
2019-Sep-16 10:38 027 5 gusting 9 26.7
2019-Sep-16 10:33 068 6 gusting 9 26.7
2019-Sep-16 10:28 033 6 gusting 9 26.7
2019-Sep-16 10:23 048 6 gusting 9 26.7
2019-Sep-16 10:18 049 5 gusting 9 26.7
2019-Sep-16 10:13 026 5 gusting 9 26.7
2019-Sep-16 10:08 018 3 gusting 9 26.7
2019-Sep-16 10:03 063 6 gusting 9 26.7
2019-Sep-16 09:58 057 4 gusting 7 26.7
2019-Sep-16 09:53 050 3 gusting 7 26.7
2019-Sep-16 09:48 042 4 gusting 7 26.1
2019-Sep-16 09:43 035 3 gusting 7 26.1
2019-Sep-16 09:38 036 4 gusting 6 26.1
2019-Sep-16 09:33 026 3 gusting 7 26.1
2019-Sep-16 09:28 041 4 gusting 7 26.1
2019-Sep-16 09:23 348 2 gusting 6 26.1
2019-Sep-16 09:18 074 2 gusting 5 26.1
2019-Sep-16 09:13 032 3 gusting 5 26.1
2019-Sep-16 09:08 038 1 gusting 5 26.1
2019-Sep-16 09:03 023 2 gusting 5 26.1
2019-Sep-16 08:58 348 2 gusting 6 26.1
2019-Sep-16 08:53 031 3 gusting 6 26.1
2019-Sep-16 08:48 028 3 gusting 6 25.6
2019-Sep-16 08:43 360 3 gusting 6 25.6
2019-Sep-16 08:38 057 1 gusting 5 25.6
2019-Sep-16 08:33 005 2 gusting 5 25.6
2019-Sep-16 08:28 005 0 gusting 4 25.0
2019-Sep-16 08:23 010 2 gusting 3 25.0
2019-Sep-16 08:18 012 2 gusting 4 25.0
2019-Sep-16 08:13 014 2 gusting 4 24.4
2019-Sep-16 08:08 355 2 gusting 3 23.9
2019-Sep-16 08:03 055 0 gusting 3 23.9
2019-Sep-16 07:58 191 23.3
2019-Sep-16 07:53 190 22.8
2019-Sep-16 07:48 191 22.2
2019-Sep-16 07:43 191 22.2
2019-Sep-16 07:38 191 21.7
2019-Sep-16 07:33 191 21.1
2019-Sep-16 07:28 191 20.6
2019-Sep-16 07:23 191 20.6
2019-Sep-16 07:18 191 20.0
2019-Sep-16 07:13 191 20.0
2019-Sep-16 07:08 190 1 gusting 3 19.4
2019-Sep-16 07:03 191 1 gusting 3 19.4
2019-Sep-16 06:58 200 1 gusting 3 18.9
2019-Sep-16 06:53 205 18.9
2019-Sep-16 06:48 205 2 gusting 4 18.3
2019-Sep-16 06:43 182 18.3
2019-Sep-16 06:38 181 1 gusting 2 17.8
2019-Sep-16 06:33 181 1 gusting 2 17.8
2019-Sep-16 06:28 181 17.2
2019-Sep-16 06:23 181 1 gusting 3 17.2
2019-Sep-16 06:18 181 1 gusting 3 16.7
2019-Sep-16 06:13 181 1 gusting 3 16.7
2019-Sep-16 06:08 181 2 gusting 3 16.7
2019-Sep-16 06:03 181 1 gusting 3 16.7
2019-Sep-16 05:58 182 2 gusting 3 16.7
2019-Sep-16 05:53 184 2 gusting 3 16.7
2019-Sep-16 05:48 186 1 gusting 3 16.7
2019-Sep-16 05:43 186 2 gusting 3 16.7
2019-Sep-16 05:38 186 2 gusting 4 16.1
2019-Sep-16 05:33 185 2 gusting 4 16.1
2019-Sep-16 05:28 194 2 gusting 4 16.1
2019-Sep-16 05:23 188 2 gusting 4 16.1
2019-Sep-16 05:18 188 3 gusting 4 16.1
2019-Sep-16 05:13 186 2 gusting 3 16.1
2019-Sep-16 05:08 186 2 gusting 4 16.1
2019-Sep-16 05:03 192 2 gusting 4 16.1
2019-Sep-16 04:58 190 2 gusting 4 16.1
2019-Sep-16 04:53 183 2 gusting 3 16.1
2019-Sep-16 04:48 185 2 gusting 4 16.1
2019-Sep-16 04:43 186 2 gusting 4 16.1
2019-Sep-16 04:38 192 3 gusting 4 16.1
2019-Sep-16 04:33 192 3 gusting 4 16.1
2019-Sep-16 04:28 192 2 gusting 3 16.1
2019-Sep-16 04:23 192 2 gusting 4 16.1
2019-Sep-16 04:18 192 3 gusting 5 16.1
2019-Sep-16 04:13 192 3 gusting 5 16.1
2019-Sep-16 04:08 192 3 gusting 3 16.7
2019-Sep-16 04:03 192 2 gusting 3 16.7
2019-Sep-16 03:58 192 2 gusting 3 16.7
2019-Sep-16 03:53 192 2 gusting 3 16.7
2019-Sep-16 03:48 192 2 gusting 3 16.7
2019-Sep-16 03:43 192 1 gusting 3 16.7
2019-Sep-16 03:38 192 2 gusting 4 16.7
2019-Sep-16 03:33 192 3 gusting 4 16.7
2019-Sep-16 03:28 190 3 gusting 4 16.7
2019-Sep-16 03:23 187 2 gusting 4 16.7
2019-Sep-16 03:18 178 2 gusting 3 16.7
2019-Sep-16 03:13 177 2 gusting 3 16.7
2019-Sep-16 03:08 177 1 gusting 2 16.7
2019-Sep-16 03:03 177 2 gusting 3 16.7
2019-Sep-16 02:58 177 2 gusting 3 16.7
2019-Sep-16 02:53 177 2 gusting 3 16.7
2019-Sep-16 02:48 180 2 gusting 4 16.7
2019-Sep-16 02:43 180 1 gusting 4 16.7
2019-Sep-16 02:38 182 3 gusting 4 16.7
2019-Sep-16 02:33 181 2 gusting 4 16.7
2019-Sep-16 02:28 192 2 gusting 4 16.7
2019-Sep-16 02:23 176 2 gusting 3 16.7
2019-Sep-16 02:18 165 3 gusting 4 16.7
2019-Sep-16 02:13 177 2 gusting 4 17.2
2019-Sep-16 02:08 175 2 gusting 5 17.2
2019-Sep-16 02:03 167 3 gusting 5 17.2
2019-Sep-16 01:58 188 2 gusting 3 17.2
2019-Sep-16 01:53 184 2 gusting 4 17.2
2019-Sep-16 01:48 175 3 gusting 4 17.2
2019-Sep-16 01:43 175 3 gusting 5 17.2
2019-Sep-16 01:38 176 3 gusting 4 17.2
2019-Sep-16 01:33 184 2 gusting 4 17.2
2019-Sep-16 01:28 175 2 gusting 4 17.2
2019-Sep-16 01:23 165 3 gusting 4 17.2
2019-Sep-16 01:18 169 3 gusting 4 17.2
2019-Sep-16 01:13 169 3 gusting 3 17.2
2019-Sep-16 01:08 180 2 gusting 3 17.2
2019-Sep-16 01:03 163 1 gusting 4 17.2
2019-Sep-16 00:58 163 2 gusting 4 17.2
2019-Sep-16 00:53 163 1 gusting 5 17.2
2019-Sep-16 00:48 164 3 gusting 5 17.2
2019-Sep-16 00:43 188 2 gusting 4 17.2
2019-Sep-16 00:38 186 3 gusting 4 17.2
2019-Sep-16 00:33 186 2 gusting 3 17.2
2019-Sep-16 00:28 186 2 gusting 3 17.2
2019-Sep-16 00:23 186 2 gusting 3 17.8
2019-Sep-16 00:18 186 2 gusting 3 17.8
2019-Sep-16 00:13 186 2 gusting 3 17.8
2019-Sep-16 00:08 186 1 gusting 3 17.8
2019-Sep-16 00:03 186 2 gusting 3 17.8
2019-Sep-15 23:58 186 1 gusting 3 17.8
2019-Sep-15 23:53 186 2 gusting 3 17.8
2019-Sep-15 23:48 186 2 gusting 4 17.8
2019-Sep-15 23:43 186 2 gusting 4 17.8
2019-Sep-15 23:38 186 2 gusting 3 17.8
2019-Sep-15 23:33 186 2 gusting 4 18.3
2019-Sep-15 23:28 186 2 gusting 4 18.3
2019-Sep-15 23:23 186 2 gusting 3 18.3
2019-Sep-15 23:18 186 2 gusting 3 18.3
2019-Sep-15 23:13 186 18.3
2019-Sep-15 23:08 186 2 gusting 3 18.3
2019-Sep-15 23:03 186 1 gusting 2 18.3
2019-Sep-15 22:58 186 1 gusting 2 18.3
2019-Sep-15 22:53 186 1 gusting 2 18.3
2019-Sep-15 22:48 186 1 gusting 2 18.3
2019-Sep-15 22:43 186 0 gusting 2 18.3
2019-Sep-15 22:38 186 1 gusting 3 18.3
2019-Sep-15 22:33 186 2 gusting 3 18.3
2019-Sep-15 22:28 192 3 gusting 3 18.9
2019-Sep-15 22:23 169 3 gusting 4 18.9
2019-Sep-15 22:18 165 2 gusting 4 18.9
2019-Sep-15 22:13 176 2 gusting 4 18.9
2019-Sep-15 22:08 180 3 gusting 5 18.9
2019-Sep-15 22:03 177 2 gusting 5 18.9
2019-Sep-15 21:58 178 2 gusting 5 18.9
2019-Sep-15 21:53 167 2 gusting 5 18.9
2019-Sep-15 21:48 183 3 gusting 4 18.9
2019-Sep-15 21:43 187 2 gusting 4 18.9
2019-Sep-15 21:38 177 3 gusting 4 18.9
2019-Sep-15 21:33 174 2 gusting 4 18.9
2019-Sep-15 21:28 176 3 gusting 4 19.4
2019-Sep-15 21:23 182 2 gusting 3 19.4
2019-Sep-15 21:18 169 2 gusting 4 19.4
2019-Sep-15 21:13 165 2 gusting 3 19.4
2019-Sep-15 21:08 165 1 gusting 4 19.4
2019-Sep-15 21:03 165 2 gusting 5 19.4
2019-Sep-15 20:58 186 2 gusting 3 19.4
2019-Sep-15 20:53 186 0 gusting 3 19.4
2019-Sep-15 20:48 186 2 gusting 4 19.4
2019-Sep-15 20:43 186 3 gusting 4 19.4
2019-Sep-15 20:38 191 3 gusting 4 19.4
2019-Sep-15 20:33 184 3 gusting 4 19.4
2019-Sep-15 20:28 186 2 gusting 4 20.0
2019-Sep-15 20:23 169 2 gusting 3 20.0
2019-Sep-15 20:18 170 2 gusting 3 20.0
2019-Sep-15 20:13 169 2 gusting 4 20.0
2019-Sep-15 20:08 169 2 gusting 4 20.0
2019-Sep-15 20:03 170 2 gusting 3 20.0
2019-Sep-15 19:58 169 2 gusting 3 20.0
2019-Sep-15 19:53 169 3 gusting 3 20.0
2019-Sep-15 19:48 169 2 gusting 4 20.6
2019-Sep-15 19:43 170 2 gusting 4 20.6
2019-Sep-15 19:38 169 2 gusting 4 20.6
2019-Sep-15 19:33 163 2 gusting 5 20.6
2019-Sep-15 19:28 163 3 gusting 5 20.6
2019-Sep-15 19:23 154 2 gusting 5 21.1
2019-Sep-15 19:18 169 2 gusting 4 21.1
2019-Sep-15 19:13 165 3 gusting 4 21.1
2019-Sep-15 19:08 157 1 gusting 4 21.1
2019-Sep-15 19:03 156 1 gusting 4 21.1
2019-Sep-15 18:58 153 1 gusting 4 21.7
2019-Sep-15 18:53 153 1 gusting 3 21.7
2019-Sep-15 18:48 153 1 gusting 2 21.7
2019-Sep-15 18:43 153 0 gusting 5 21.7
2019-Sep-15 18:38 153 2 gusting 5 22.2
2019-Sep-15 18:33 173 1 gusting 3 22.2
2019-Sep-15 18:28 173 2 gusting 3 22.2
2019-Sep-15 18:23 167 22.8
2019-Sep-15 18:18 167 2 gusting 2 22.8
2019-Sep-15 18:13 167 2 gusting 3 22.8
2019-Sep-15 18:08 167 2 gusting 2 23.3
2019-Sep-15 18:03 167 23.3
2019-Sep-15 17:58 167 0 gusting 3 23.3
2019-Sep-15 17:53 167 1 gusting 2 23.9
2019-Sep-15 17:48 167 23.9
2019-Sep-15 17:43 167 23.9
2019-Sep-15 17:38 167 23.9
2019-Sep-15 17:33 167 23.9
2019-Sep-15 17:28 167 24.4
2019-Sep-15 17:23 167 24.4
2019-Sep-15 17:18 167 24.4
2019-Sep-15 17:13 167 24.4
2019-Sep-15 17:08 167 25.0
2019-Sep-15 17:03 167 25.0
2019-Sep-15 16:58 167 25.0
2019-Sep-15 16:53 167 0 gusting 2 25.0
2019-Sep-15 16:48 167 2 gusting 3 25.0
2019-Sep-15 16:43 167 25.0
2019-Sep-15 16:38 167 25.6
2019-Sep-15 16:33 167 1 gusting 5 25.6
2019-Sep-15 16:28 157 2 gusting 4 25.6
2019-Sep-15 16:23 184 2 gusting 4 26.1
2019-Sep-15 16:18 167 1 gusting 4 26.1
2019-Sep-15 16:13 096 0 gusting 4 26.1
2019-Sep-15 16:08 061 1 gusting 5 26.1
2019-Sep-15 16:03 067 1 gusting 5 25.6
2019-Sep-15 15:58 080 2 gusting 5 25.6
2019-Sep-15 15:53 090 1 gusting 4 25.6
2019-Sep-15 15:48 076 2 gusting 4 25.6
2019-Sep-15 15:43 100 2 gusting 6 25.0
2019-Sep-15 15:38 113 2 gusting 7 25.0
2019-Sep-15 15:33 093 4 gusting 9 25.0
2019-Sep-15 15:28 069 5 gusting 9 25.0
2019-Sep-15 15:23 070 5 gusting 8 25.0
2019-Sep-15 15:18 046 6 gusting 9 25.0
2019-Sep-15 15:13 075 5 gusting 8 25.0
2019-Sep-15 15:08 065 4 gusting 9 25.0
2019-Sep-15 15:03 046 5 gusting 9 25.0
2019-Sep-15 14:58 068 6 gusting 9 25.0
2019-Sep-15 14:53 045 5 gusting 11 25.0
2019-Sep-15 14:48 039 6 gusting 10 25.0
2019-Sep-15 14:43 071 5 gusting 11 25.0
2019-Sep-15 14:38 071 6 gusting 11 25.0
2019-Sep-15 14:33 071 6 gusting 10 25.6
2019-Sep-15 14:28 092 6 gusting 9 25.6
2019-Sep-15 14:23 063 6 gusting 9 25.6
2019-Sep-15 14:18 069 5 gusting 9 26.1
2019-Sep-15 14:13 086 5 gusting 9 26.1
2019-Sep-15 14:08 071 5 gusting 10 26.1
2019-Sep-15 14:03 033 6 gusting 9 26.1
2019-Sep-15 13:58 069 2 gusting 10 26.7
2019-Sep-15 13:53 059 7 gusting 9 26.7
2019-Sep-15 13:48 040 6 gusting 9 26.7
2019-Sep-15 13:43 059 6 gusting 9 26.7
2019-Sep-15 13:38 078 4 gusting 8 26.7
2019-Sep-15 13:33 055 4 gusting 9 26.7
2019-Sep-15 13:28 050 6 gusting 9 26.7
2019-Sep-15 13:23 077 3 gusting 9 26.7
2019-Sep-15 13:18 062 6 gusting 9 26.7
2019-Sep-15 13:13 062 6 gusting 9 26.7
2019-Sep-15 13:08 072 6 gusting 10 26.7
2019-Sep-15 13:03 013 5 gusting 10 27.2
2019-Sep-15 12:58 071 5 gusting 9 27.2
2019-Sep-15 12:53 125 4 gusting 8 27.2
2019-Sep-15 12:48 074 5 gusting 8 27.2
2019-Sep-15 12:43 063 4 gusting 8 27.2
2019-Sep-15 12:38 014 3 gusting 8 27.2
2019-Sep-15 12:33 012 5 gusting 8 27.2
2019-Sep-15 12:28 070 4 gusting 8 27.2
2019-Sep-15 12:23 053 5 gusting 8 27.2
2019-Sep-15 12:18 355 3 gusting 8 27.2
2019-Sep-15 12:13 048 5 gusting 9 27.2
2019-Sep-15 12:08 040 5 gusting 8 27.2
2019-Sep-15 12:03 064 5 gusting 8 27.2
2019-Sep-15 11:58 068 5 gusting 8 27.2
2019-Sep-15 11:53 034 6 gusting 8 27.2
2019-Sep-15 11:48 023 4 gusting 7 27.2
2019-Sep-15 11:43 050 4 gusting 6 27.2
2019-Sep-15 11:38 032 3 gusting 6 27.2
2019-Sep-15 11:33 005 4 gusting 7 27.2
2019-Sep-15 11:28 026 5 gusting 7 26.7
2019-Sep-15 11:23 032 4 gusting 6 26.7
2019-Sep-15 11:18 016 3 gusting 6 26.7
2019-Sep-15 11:13 053 3 gusting 8 26.7
2019-Sep-15 11:08 027 4 gusting 8 26.1
2019-Sep-15 11:03 351 3 gusting 7 26.1
2019-Sep-15 10:58 005 3 gusting 7 26.1
2019-Sep-15 10:53 024 4 gusting 7 26.1
2019-Sep-15 10:48 336 3 gusting 6 26.1
2019-Sep-15 10:43 005 3 gusting 8 26.1
2019-Sep-15 10:38 360 4 gusting 8 26.1
2019-Sep-15 10:33 005 4 gusting 8 26.1
2019-Sep-15 10:28 345 5 gusting 8 25.6
2019-Sep-15 10:23 019 4 gusting 8 26.1
2019-Sep-15 10:18 360 4 gusting 7 26.1
2019-Sep-15 10:13 355 5 gusting 7 26.1
2019-Sep-15 10:08 034 2 gusting 7 25.6
2019-Sep-15 10:03 009 3 gusting 7 25.6
2019-Sep-15 09:58 348 5 gusting 7 25.6
2019-Sep-15 09:53 028 4 gusting 8 25.0
2019-Sep-15 09:48 018 3 gusting 8 25.0
2019-Sep-15 09:43 355 6 gusting 8 25.0
2019-Sep-15 09:38 360 6 gusting 9 25.0
2019-Sep-15 09:33 026 5 gusting 9 25.0
2019-Sep-15 09:28 341 6 gusting 10 25.0
2019-Sep-15 09:23 329 4 gusting 10 25.0
2019-Sep-15 09:18 010 6 gusting 9 24.4
2019-Sep-15 09:13 346 5 gusting 9 24.4
2019-Sep-15 09:08 298 3 gusting 8 24.4
2019-Sep-15 09:03 327 5 gusting 8 24.4
2019-Sep-15 08:58 327 3 gusting 6 24.4
2019-Sep-15 08:53 005 2 gusting 8 23.9
2019-Sep-15 08:48 346 5 gusting 8 23.9
2019-Sep-15 08:43 342 3 gusting 8 23.9
2019-Sep-15 08:38 009 4 gusting 8 23.9
2019-Sep-15 08:33 338 4 gusting 8 23.9
2019-Sep-15 08:28 360 3 gusting 7 23.3
2019-Sep-15 08:23 346 3 gusting 7 23.3
2019-Sep-15 08:18 319 3 gusting 7 23.3
2019-Sep-15 08:13 313 2 gusting 5 22.8
2019-Sep-15 08:08 355 2 gusting 6 22.8
2019-Sep-15 08:03 317 4 gusting 6 22.8
2019-Sep-15 07:58 340 3 gusting 6 22.8
2019-Sep-15 07:53 311 3 gusting 5 22.2
2019-Sep-15 07:48 331 1 gusting 4 22.2
2019-Sep-15 07:43 234 21.7
2019-Sep-15 07:38 234 21.1
2019-Sep-15 07:33 234 21.1
2019-Sep-15 07:28 234 20.6
2019-Sep-15 07:23 234 20.6
2019-Sep-15 07:18 234 20.0
2019-Sep-15 07:13 235 19.4
2019-Sep-15 07:08 245 0 gusting 3 19.4
2019-Sep-15 07:03 184 1 gusting 3 18.9
2019-Sep-15 06:58 185 2 gusting 3 18.9
2019-Sep-15 06:53 185 1 gusting 3 18.3
2019-Sep-15 06:48 185 1 gusting 3 18.3
2019-Sep-15 06:43 190 1 gusting 2 17.8
2019-Sep-15 06:38 190 1 gusting 3 17.8
2019-Sep-15 06:33 190 1 gusting 3 17.2
2019-Sep-15 06:28 190 17.2
2019-Sep-15 06:23 190 1 gusting 2 17.2
2019-Sep-15 06:18 192 1 gusting 2 16.7
2019-Sep-15 06:13 192 1 gusting 2 16.7
2019-Sep-15 06:08 192 1 gusting 3 16.7
2019-Sep-15 06:03 192 1 gusting 3 16.1
2019-Sep-15 05:58 193 0 gusting 3 16.1
2019-Sep-15 05:53 192 2 gusting 4 16.1
2019-Sep-15 05:48 195 2 gusting 4 16.1
2019-Sep-15 05:43 182 2 gusting 3 15.6
2019-Sep-15 05:38 182 2 gusting 4 15.6
2019-Sep-15 05:33 186 2 gusting 4 15.6
2019-Sep-15 05:28 192 2 gusting 4 15.6
2019-Sep-15 05:23 214 2 gusting 4 15.6
2019-Sep-15 05:18 191 2 gusting 3 15.6
2019-Sep-15 05:13 184 1 gusting 3 15.6
2019-Sep-15 05:08 184 2 gusting 4 15.6
2019-Sep-15 05:03 191 2 gusting 4 15.6
2019-Sep-15 04:58 191 2 gusting 3 15.6
2019-Sep-15 04:53 191 2 gusting 4 15.6
2019-Sep-15 04:48 192 2 gusting 4 15.6
2019-Sep-15 04:43 191 2 gusting 4 15.6
2019-Sep-15 04:38 191 2 gusting 3 15.6
2019-Sep-15 04:33 191 1 gusting 4 15.6
2019-Sep-15 04:28 200 2 gusting 4 15.6
2019-Sep-15 04:23 202 2 gusting 4 15.6
2019-Sep-15 04:18 201 0 gusting 4 15.6
2019-Sep-15 04:13 202 2 gusting 4 15.6
2019-Sep-15 04:08 193 2 gusting 4 15.6
2019-Sep-15 04:03 194 2 gusting 4 15.6
2019-Sep-15 03:58 194 2 gusting 4 15.6
2019-Sep-15 03:53 199 2 gusting 4 15.6
2019-Sep-15 03:48 181 2 gusting 4 15.6
2019-Sep-15 03:43 181 2 gusting 3 15.6
2019-Sep-15 03:38 181 2 gusting 4 15.6
2019-Sep-15 03:33 196 2 gusting 4 15.6
2019-Sep-15 03:28 196 2 gusting 4 15.6
2019-Sep-15 03:23 196 2 gusting 5 15.6
2019-Sep-15 03:18 196 3 gusting 5 16.1
2019-Sep-15 03:13 196 2 gusting 3 16.1
2019-Sep-15 03:08 196 2 gusting 3 16.1
2019-Sep-15 03:03 196 1 gusting 3 16.1
2019-Sep-15 02:58 196 2 gusting 3 16.1
2019-Sep-15 02:53 196 2 gusting 3 16.1
2019-Sep-15 02:48 196 1 gusting 4 16.1
2019-Sep-15 02:43 196 2 gusting 4 16.1
2019-Sep-15 02:38 196 2 gusting 3 16.1
2019-Sep-15 02:33 196 2 gusting 3 16.1
2019-Sep-15 02:28 196 1 gusting 4 16.1
2019-Sep-15 02:23 196 2 gusting 4 16.1
2019-Sep-15 02:18 178 2 gusting 3 16.7
2019-Sep-15 02:13 178 1 gusting 4 16.7
2019-Sep-15 02:08 180 2 gusting 4 16.7
2019-Sep-15 02:03 198 2 gusting 4 16.7
2019-Sep-15 01:58 199 2 gusting 4 16.7
2019-Sep-15 01:53 191 2 gusting 4 16.7
2019-Sep-15 01:48 191 1 gusting 4 16.7
2019-Sep-15 01:43 187 1 gusting 4 16.7
2019-Sep-15 01:38 192 2 gusting 4 16.7
2019-Sep-15 01:33 196 2 gusting 4 16.7
2019-Sep-15 01:28 211 2 gusting 4 16.7
2019-Sep-15 01:23 196 2 gusting 3 16.7
2019-Sep-15 01:18 196 1 gusting 4 16.7
2019-Sep-15 01:13 197 2 gusting 4 17.2
2019-Sep-15 01:08 207 2 gusting 4 17.2
2019-Sep-15 01:03 207 1 gusting 3 17.2
2019-Sep-15 00:58 207 2 gusting 3 17.2
2019-Sep-15 00:53 207 1 gusting 2 17.2
2019-Sep-15 00:48 207 1 gusting 2 17.2
2019-Sep-15 00:43 207 1 gusting 3 17.2
2019-Sep-15 00:38 207 2 gusting 4 17.2
2019-Sep-15 00:33 187 2 gusting 4 17.2
2019-Sep-15 00:28 194 2 gusting 3 17.2
2019-Sep-15 00:23 192 2 gusting 3 17.2
2019-Sep-15 00:18 194 2 gusting 3 17.2
2019-Sep-15 00:13 194 1 gusting 4 17.2
2019-Sep-15 00:08 194 2 gusting 4 17.2
2019-Sep-15 00:03 182 2 gusting 3 17.2
2019-Sep-14 23:58 174 2 gusting 4 17.8
2019-Sep-14 23:53 173 2 gusting 4 17.8
2019-Sep-14 23:48 184 2 gusting 3 17.8
2019-Sep-14 23:43 184 2 gusting 3 17.8
2019-Sep-14 23:38 184 1 gusting 3 17.8
2019-Sep-14 23:33 184 2 gusting 3 17.8
2019-Sep-14 23:28 186 1 gusting 4 17.8
2019-Sep-14 23:23 175 2 gusting 4 17.8
2019-Sep-14 23:18 182 2 gusting 4 17.8
2019-Sep-14 23:13 181 2 gusting 4 17.8
2019-Sep-14 23:08 192 1 gusting 5 17.8
2019-Sep-14 23:03 174 3 gusting 5 17.8
2019-Sep-14 22:58 180 2 gusting 4 17.8
2019-Sep-14 22:53 203 2 gusting 4 17.8
2019-Sep-14 22:48 211 1 gusting 3 17.8
2019-Sep-14 22:43 185 1 gusting 2 17.8
2019-Sep-14 22:38 185 1 gusting 3 17.8
2019-Sep-14 22:33 185 2 gusting 4 17.8
2019-Sep-14 22:28 186 2 gusting 4 17.8
2019-Sep-14 22:23 185 2 gusting 4 17.8
2019-Sep-14 22:18 189 2 gusting 4 17.8
2019-Sep-14 22:13 192 2 gusting 3 17.8
2019-Sep-14 22:08 192 2 gusting 3 18.3
2019-Sep-14 22:03 187 1 gusting 3 18.3